When you browse on this site, cookies collect data to enhance your experience and personalize the content and advertising you see.
Visit our Privacy Policy to learn more. By continuing to use the site, you agree to this use of cookies and data.
  • In France
  • List of Countries
  • For 7 days
  • Water Temperature
  • Weather Map
  • Weather Widgets
  • user-avatar
    Login

    Hourly Weather Wigston Magna

    Today, 21 August, Wednesday

    Time Temperature Precipitation Wind Pressure Humidity
    00:00 +13°C° 0 mm 3 mps 760 mmHg 91%
    01:00 +12°C° 0 mm 3 mps 760 mmHg 92%
    02:00 +12°C° 0 mm 3 mps 760 mmHg 92%
    03:00 +12°C° 0 mm 3 mps 760 mmHg 93%
    04:00 +12°C° 0 mm 3 mps 760 mmHg 93%
    05:00 +12°C° 0 mm 3 mps 760 mmHg 93%
    06:00 +12°C° 0 mm 3 mps 761 mmHg 92%
    07:00 +13°C° 0 mm 3 mps 761 mmHg 87%
    08:00 +16°C° 0 mm 3 mps 761 mmHg 81%
    09:00 +17°C° 0 mm 4 mps 761 mmHg 75%
    10:00 +18°C° 0 mm 4 mps 761 mmHg 71%
    11:00 +19°C° 0 mm 4 mps 761 mmHg 66%
    12:00 +20°C° 0 mm 5 mps 760 mmHg 61%
    13:00 +21°C° 0.1 mm 5 mps 760 mmHg 61%
    14:00 +21°C° 0.1 mm 5 mps 760 mmHg 60%
    15:00 +21°C° 0.1 mm 6 mps 760 mmHg 60%
    16:00 +20°C° 0 mm 5 mps 759 mmHg 63%
    17:00 +19°C° 0 mm 4 mps 759 mmHg 67%
    18:00 +19°C° 0 mm 4 mps 759 mmHg 70%
    19:00 +18°C° 0 mm 4 mps 759 mmHg 73%
    20:00 +17°C° 0 mm 4 mps 759 mmHg 76%
    21:00 +15°C° 0 mm 4 mps 759 mmHg 80%
    22:00 +14°C° 0 mm 4 mps 759 mmHg 79%
    23:00 +14°C° 0 mm 4 mps 759 mmHg 79%

    Tomorrow, 22 August, Thursday

    Time Temperature Precipitation Wind Pressure Humidity
    00:00 +13°C° 0 mm 4 mps 759 mmHg 79%
    01:00 +13°C° 0 mm 4 mps 759 mmHg 81%
    02:00 +13°C° 0 mm 5 mps 758 mmHg 84%
    03:00 +12°C° 0 mm 5 mps 758 mmHg 86%
    04:00 +13°C° 0 mm 5 mps 758 mmHg 87%
    05:00 +13°C° 0 mm 5 mps 758 mmHg 88%
    06:00 +13°C° 0 mm 5 mps 758 mmHg 89%
    07:00 +14°C° 0 mm 6 mps 758 mmHg 85%
    08:00 +16°C° 0 mm 6 mps 759 mmHg 81%
    09:00 +17°C° 0 mm 6 mps 759 mmHg 78%
    10:00 +19°C° 0 mm 6 mps 759 mmHg 75%
    11:00 +20°C° 0 mm 6 mps 759 mmHg 72%
    12:00 +21°C° 0 mm 6 mps 759 mmHg 69%
    13:00 +21°C° 0.2 mm 6 mps 759 mmHg 69%
    14:00 +21°C° 0.2 mm 6 mps 759 mmHg 68%
    15:00 +21°C° 0.2 mm 6 mps 759 mmHg 68%
    16:00 +21°C° 0.1 mm 5 mps 759 mmHg 70%
    17:00 +20°C° 0.1 mm 5 mps 758 mmHg 73%
    18:00 +20°C° 0.1 mm 4 mps 758 mmHg 76%
    19:00 +19°C° 0 mm 4 mps 759 mmHg 79%
    20:00 +18°C° 0 mm 3 mps 759 mmHg 83%
    21:00 +17°C° 0 mm 3 mps 759 mmHg 86%
    22:00 +16°C° 0 mm 3 mps 759 mmHg 88%
    23:00 +16°C° 0 mm 3 mps 759 mmHg 90%

    Day after tomorrow, 23 August, Friday

    Time Temperature Precipitation Wind Pressure Humidity
    00:00 +14°C° 0 mm 3 mps 759 mmHg 92%
    01:00 +14°C° 0 mm 3 mps 759 mmHg 92%
    02:00 +14°C° 0 mm 3 mps 759 mmHg 93%
    03:00 +13°C° 0 mm 3 mps 759 mmHg 94%
    04:00 +14°C° 0 mm 3 mps 759 mmHg 94%
    05:00 +14°C° 0 mm 3 mps 759 mmHg 94%
    06:00 +14°C° 0 mm 3 mps 759 mmHg 94%
    07:00 +16°C° 0 mm 3 mps 759 mmHg 88%
    08:00 +18°C° 0 mm 3 mps 759 mmHg 82%
    09:00 +19°C° 0 mm 3 mps 759 mmHg 76%
    10:00 +20°C° 0 mm 3 mps 759 mmHg 72%
    11:00 +21°C° 0 mm 3 mps 759 mmHg 69%
    12:00 +23°C° 0 mm 2 mps 759 mmHg 65%
    13:00 +23°C° 0 mm 2 mps 759 mmHg 64%
    14:00 +24°C° 0 mm 2 mps 759 mmHg 62%
    15:00 +24°C° 0 mm 2 mps 758 mmHg 61%
    16:00 +24°C° 0 mm 2 mps 758 mmHg 64%
    17:00 +23°C° 0 mm 2 mps 758 mmHg 67%
    18:00 +23°C° 0 mm 1 mps 758 mmHg 69%
    19:00 +22°C° 0 mm 1 mps 758 mmHg 73%
    20:00 +21°C° 0 mm 1 mps 758 mmHg 76%
    21:00 +17°C° 0 mm 0 mps 758 mmHg 80%
    22:00 +19°C° 0 mm 1 mps 758 mmHg 81%
    23:00 +19°C° 0 mm 1 mps 758 mmHg 82%

    24 August, Saturday

    Time Temperature Precipitation Wind Pressure Humidity
    00:00 +18°C° 0 mm 1 mps 758 mmHg 83%
    01:00 +18°C° 0 mm 1 mps 758 mmHg 83%
    02:00 +16°C° 0 mm 1 mps 757 mmHg 84%
    03:00 +16°C° 0 mm 1 mps 757 mmHg 84%
    04:00 +16°C° 0 mm 1 mps 757 mmHg 84%
    05:00 +16°C° 0 mm 2 mps 757 mmHg 83%
    06:00 +16°C° 0 mm 2 mps 756 mmHg 82%
    07:00 +17°C° 0 mm 2 mps 756 mmHg 75%
    08:00 +19°C° 0 mm 2 mps 757 mmHg 67%
    09:00 +20°C° 0 mm 3 mps 757 mmHg 59%
    10:00 +21°C° 0 mm 3 mps 756 mmHg 57%
    11:00 +24°C° 0 mm 3 mps 756 mmHg 54%
    12:00 +25°C° 0 mm 3 mps 756 mmHg 52%
    13:00 +25°C° 0 mm 3 mps 756 mmHg 52%
    14:00 +26°C° 0 mm 3 mps 755 mmHg 51%
    15:00 +27°C° 0 mm 3 mps 755 mmHg 51%
    16:00 +26°C° 0 mm 3 mps 755 mmHg 55%
    17:00 +25°C° 0 mm 3 mps 754 mmHg 60%
    18:00 +24°C° 0 mm 2 mps 754 mmHg 64%
    19:00 +22°C° 0 mm 3 mps 754 mmHg 66%
    20:00 +21°C° 0 mm 3 mps 754 mmHg 69%
    21:00 +20°C° 0 mm 3 mps 754 mmHg 72%
    22:00 +19°C° 0 mm 3 mps 754 mmHg 75%
    23:00 +18°C° 0 mm 3 mps 754 mmHg 77%

    25 August, Sunday

    Time Temperature Precipitation Wind Pressure Humidity
    00:00 +17°C° 0 mm 2 mps 754 mmHg 80%
    01:00 +17°C° 0 mm 2 mps 753 mmHg 80%
    02:00 +17°C° 0 mm 2 mps 753 mmHg 80%
    03:00 +17°C° 0 mm 2 mps 753 mmHg 80%
    04:00 +17°C° 0 mm 2 mps 753 mmHg 80%
    05:00 +17°C° 0 mm 2 mps 753 mmHg 80%
    06:00 +18°C° 0 mm 2 mps 752 mmHg 80%
    07:00 +19°C° 0 mm 2 mps 752 mmHg 76%
    08:00 +20°C° 0 mm 3 mps 752 mmHg 73%
    09:00 +21°C° 0 mm 3 mps 752 mmHg 69%
    10:00 +24°C° 0 mm 3 mps 752 mmHg 63%
    11:00 +26°C° 0 mm 4 mps 752 mmHg 57%
    12:00 +28°C° 0 mm 4 mps 752 mmHg 51%
    13:00 +28°C° 0 mm 4 mps 752 mmHg 51%
    14:00 +28°C° 0 mm 4 mps 751 mmHg 51%
    15:00 +29°C° 0 mm 5 mps 751 mmHg 50%
    16:00 +27°C° 0 mm 4 mps 751 mmHg 56%
    17:00 +26°C° 0 mm 4 mps 751 mmHg 61%
    18:00 +25°C° 0 mm 4 mps 751 mmHg 66%
    19:00 +22°C° 0 mm 4 mps 751 mmHg 71%
    20:00 +21°C° 0 mm 4 mps 751 mmHg 76%
    21:00 +19°C° 0 mm 4 mps 751 mmHg 82%
    22:00 +18°C° 0 mm 4 mps 751 mmHg 83%
    23:00 +18°C° 0 mm 4 mps 751 mmHg 85%

    26 August, Monday

    Time Temperature Precipitation Wind Pressure Humidity
    00:00 +17°C° 0 mm 3 mps 751 mmHg 87%
    01:00 +15°C° 0 mm 4 mps 751 mmHg 87%
    02:00 +15°C° 0 mm 4 mps 751 mmHg 87%
    03:00 +15°C° 0 mm 4 mps 751 mmHg 88%
    04:00 +15°C° 0 mm 4 mps 751 mmHg 87%
    05:00 +15°C° 0 mm 4 mps 751 mmHg 86%
    06:00 +15°C° 0 mm 5 mps 751 mmHg 84%
    07:00 +15°C° 0 mm 5 mps 752 mmHg 80%
    08:00 +16°C° 0 mm 6 mps 752 mmHg 75%
    09:00 +16°C° 0 mm 6 mps 752 mmHg 70%
    10:00 +17°C° 0 mm 6 mps 752 mmHg 72%
    11:00 +17°C° 0 mm 6 mps 752 mmHg 73%
    12:00 +17°C° 0 mm 6 mps 752 mmHg 75%
    13:00 +19°C° 0 mm 6 mps 752 mmHg 76%
    14:00 +19°C° 0 mm 6 mps 753 mmHg 77%
    15:00 +19°C° 0 mm 6 mps 753 mmHg 78%
    16:00 +19°C° 0.1 mm 5 mps 753 mmHg 77%
    17:00 +17°C° 0.1 mm 5 mps 753 mmHg 77%
    18:00 +18°C° 0.1 mm 4 mps 754 mmHg 76%
    19:00 +17°C° 0 mm 4 mps 755 mmHg 75%
    20:00 +14°C° 0 mm 3 mps 755 mmHg 74%
    21:00 +13°C° 0 mm 3 mps 756 mmHg 73%
    22:00 +13°C° 0 mm 3 mps 757 mmHg 75%
    23:00 +13°C° 0 mm 2 mps 757 mmHg 78%
    Show more